EA7KZ-10 Weather Reports


time (UTC)temp
C
wind
direction
speed
KPH
gust
KPH
rain 1hr
cm
rain 24hr
cm
rain mn
cm
humidity
%
barometer
mb
20260510234443 15 0.0 0.0 0.00 0.00 0.00 57 1017.6
20260510233444 15 0.0 0.0 0.00 0.00 0.00 57 1017.5
20260510232444 15 0.0 0.0 0.00 0.00 0.00 57 1017.5
20260510231444 15 0.0 0.0 0.00 0.00 0.00 58 1017.5
20260510230444 15 0.0 0.0 0.00 0.00 0.00 58 1017.4
20260510225444 15 0.0 0.0 0.00 0.00 0.00 59 1017.5
20260510224444 15 0.0 0.0 0.00 0.00 0.00 60 1017.4
20260510223443 15 0.0 0.0 0.00 0.00 0.00 59 1017.4
20260510222444 15 0.0 0.0 0.00 0.00 0.00 59 1017.4
20260510221444 15 0.0 0.0 0.00 0.00 0.00 59 1017.5
20260510220444 15 0.0 0.0 0.00 0.00 0.00 60 1017.5
20260510215444 15 0.0 0.0 0.00 0.00 0.00 60 1017.5
20260510214444 15 0.0 0.0 0.00 0.00 0.00 60 1017.4
20260510213443 15 0.0 0.0 0.00 0.00 0.00 60 1017.3
20260510212444 16 0.0 0.0 0.00 0.00 0.00 59 1017.3
20260510211444 15 0.0 0.0 0.00 0.00 0.00 59 1017.4
20260510210444 16 0.0 0.0 0.00 0.00 0.00 59 1017.3
20260510205444 16 0.0 0.0 0.00 0.00 0.00 58 1017.2
20260510204444 16 0.0 0.0 0.00 0.00 0.00 58 1017.0
20260510203444 16 0.0 0.0 0.00 0.00 0.00 59 1016.9
20260510202444 16 0.0 0.0 0.00 0.00 0.00 59 1017.0
20260510201444 16 0.0 0.0 0.00 0.00 0.00 59 1016.8
20260510200444 16 0.0 0.0 0.00 0.00 0.00 58 1016.6
20260510195444 16 0.0 0.0 0.00 0.00 0.00 59 1016.7
20260510194444 16 0.0 0.0 0.00 0.00 0.00 59 1016.6
20260510193444 16 0.0 0.0 0.00 0.00 0.00 60 1016.4
20260510192444 16 0.0 0.0 0.00 0.00 0.00 59 1016.5
20260510191444 16 0.0 0.0 0.00 0.00 0.00 59 1016.4
20260510190444 16 0.0 0.0 0.00 0.00 0.00 59 1016.2
20260510185443 16 0.0 0.0 0.00 0.00 0.00 59 1016.2
20260510184444 16 0.0 0.0 0.00 0.00 0.00 60 1016.1
20260510183444 16 0.0 0.0 0.00 0.00 0.00 59 1016.0
20260510182444 16 0.0 0.0 0.00 0.00 0.00 60 1015.7
20260510181444 16 0.0 0.0 0.00 0.00 0.00 60 1015.8
20260510180444 16 0.0 0.0 0.00 0.00 0.00 60 1015.6
20260510175444 16 0.0 0.0 0.00 0.00 0.00 60 1015.5
20260510174443 16 0.0 0.0 0.00 0.00 0.00 59 1015.4
20260510173443 16 0.0 0.0 0.00 0.00 0.00 61 1015.3
20260510172443 16 0.0 0.0 0.00 0.00 0.00 62 1015.5
20260510171443 16 0.0 0.0 0.00 0.00 0.00 63 1015.4
20260510170444 16 0.0 0.0 0.00 0.00 0.00 63 1015.3
20260510165444 16 0.0 0.0 0.00 0.00 0.00 63 1015.2
20260510164443 16 0.0 0.0 0.00 0.00 0.00 63 1015.4
20260510163443 16 0.0 0.0 0.00 0.00 0.00 64 1015.5
20260510162443 16 0.0 0.0 0.00 0.00 0.00 65 1015.6
20260510161443 17 0.0 0.0 0.00 0.00 0.00 63 1015.3
20260510160443 17 0.0 0.0 0.00 0.00 0.00 62 1015.1
20260510155444 17 0.0 0.0 0.00 0.00 0.00 58 1014.4
20260510154443 17 0.0 0.0 0.00 0.00 0.00 58 1013.9
20260510153443 17 0.0 0.0 0.00 0.00 0.00 60 1013.9
20260510152443 17 0.0 0.0 0.00 0.00 0.00 59 1013.7
20260510151444 17 0.0 0.0 0.00 0.00 0.00 60 1013.8
20260510150443 17 0.0 0.0 0.00 0.00 0.00 60 1013.9
20260510145443 17 0.0 0.0 0.00 0.00 0.00 60 1013.9
20260510144444 17 0.0 0.0 0.00 0.00 0.00 59 1014.3
20260510143443 17 0.0 0.0 0.00 0.00 0.00 58 1014.3
20260510142443 17 0.0 0.0 0.00 0.00 0.00 58 1014.3
20260510141444 17 0.0 0.0 0.00 0.00 0.00 60 1014.7
20260510140443 17 0.0 0.0 0.00 0.00 0.00 59 1014.8
20260510135443 17 0.0 0.0 0.00 0.00 0.00 58 1014.9
20260510134443 17 0.0 0.0 0.00 0.00 0.00 54 1014.6
20260510133443 17 0.0 0.0 0.00 0.00 0.00 54 1014.5
20260510132443 17 0.0 0.0 0.00 0.00 0.00 56 1014.5
20260510131443 17 0.0 0.0 0.00 0.00 0.00 55 1014.6
20260510130444 17 0.0 0.0 0.00 0.00 0.00 57 1014.5
20260510125443 17 0.0 0.0 0.00 0.00 0.00 56 1014.7
20260510124443 17 0.0 0.0 0.00 0.00 0.00 58 1014.8
20260510123443 17 0.0 0.0 0.00 0.00 0.00 57 1015.0
20260510121443 17 0.0 0.0 0.00 0.00 0.00 57 1015.0
20260510120443 17 0.0 0.0 0.00 0.00 0.00 57 1015.2
20260510115443 17 0.0 0.0 0.00 0.00 0.00 56 1015.2
20260510114443 17 0.0 0.0 0.00 0.00 0.00 52 1014.9
20260510113443 17 0.0 0.0 0.00 0.00 0.00 51 1014.8
20260510112443 17 0.0 0.0 0.00 0.00 0.00 50 1014.6
20260510110443 17 0.0 0.0 0.00 0.00 0.00 49 1015.1
20260510105443 17 0.0 0.0 0.00 0.00 0.00 49 1014.8
20260510104443 17 0.0 0.0 0.00 0.00 0.00 50 1014.9
20260510103443 17 0.0 0.0 0.00 0.00 0.00 50 1015.1
20260510100443 17 0.0 0.0 0.00 0.00 0.00 50 1014.8
20260510095443 17 0.0 0.0 0.00 0.00 0.00 50 1014.9
20260510093443 17 0.0 0.0 0.00 0.00 0.00 50 1014.9
20260510092444 17 0.0 0.0 0.00 0.00 0.00 51 1015.0
20260510091443 17 0.0 0.0 0.00 0.00 0.00 51 1015.2
20260510090443 16 0.0 0.0 0.00 0.00 0.00 52 1015.2
20260510085443 16 0.0 0.0 0.00 0.00 0.00 53 1015.2
20260510084443 16 0.0 0.0 0.00 0.00 0.00 53 1015.3
20260510083443 16 0.0 0.0 0.00 0.00 0.00 54 1015.5
20260510082443 16 0.0 0.0 0.00 0.00 0.00 54 1015.4
20260510081443 15 0.0 0.0 0.00 0.00 0.00 55 1015.6
20260510075443 15 0.0 0.0 0.00 0.00 0.00 56 1015.7
20260510074443 15 0.0 0.0 0.00 0.00 0.00 56 1015.7
20260510073443 15 0.0 0.0 0.00 0.00 0.00 57 1015.8
20260510072443 15 0.0 0.0 0.00 0.00 0.00 57 1015.7
20260510071443 15 0.0 0.0 0.00 0.00 0.00 58 1015.8
20260510070443 15 0.0 0.0 0.00 0.00 0.00 61 1015.8
20260510065443 15 0.0 0.0 0.00 0.00 0.00 59 1015.7
20260510064443 15 0.0 0.0 0.00 0.00 0.00 58 1015.7
20260510063443 15 0.0 0.0 0.00 0.00 0.00 58 1015.5
20260510061443 15 0.0 0.0 0.00 0.00 0.00 58 1015.5
20260510060443 15 0.0 0.0 0.00 0.00 0.00 59 1015.5
20260510055443 15 0.0 0.0 0.00 0.00 0.00 58 1015.5
20260510054443 14 0.0 0.0 0.00 0.00 0.00 61 1015.4
20260510053443 14 0.0 0.0 0.00 0.00 0.00 62 1015.4
20260510052443 14 0.0 0.0 0.00 0.00 0.00 64 1015.4
20260510051443 14 0.0 0.0 0.00 0.00 0.00 64 1015.4
20260510050443 14 0.0 0.0 0.00 0.00 0.00 63 1015.5
20260510045443 14 0.0 0.0 0.00 0.00 0.00 64 1015.4
20260510043443 14 0.0 0.0 0.00 0.00 0.00 63 1015.5
20260510040443 13 0.0 0.0 0.00 0.00 0.00 62 1015.7
20260510035443 14 0.0 0.0 0.00 0.00 0.00 62 1015.8
20260510034443 14 0.0 0.0 0.00 0.00 0.00 62 1015.8
20260510033443 14 0.0 0.0 0.00 0.00 0.00 62 1015.8
20260510032443 14 0.0 0.0 0.00 0.00 0.00 63 1015.9
20260510031443 14 0.0 0.0 0.00 0.00 0.00 63 1016.0
20260510030443 14 0.0 0.0 0.00 0.00 0.00 63 1015.8
20260510025443 14 0.0 0.0 0.00 0.00 0.00 63 1015.7
20260510024443 14 0.0 0.0 0.00 0.00 0.00 63 1015.7
20260510023443 14 0.0 0.0 0.00 0.00 0.00 63 1015.8
20260510022443 14 0.0 0.0 0.00 0.00 0.00 63 1015.8
20260510021443 14 0.0 0.0 0.00 0.00 0.00 62 1015.8
20260510020443 14 0.0 0.0 0.00 0.00 0.00 63 1015.8
20260510015443 15 0.0 0.0 0.00 0.00 0.00 62 1015.9
20260510014443 15 0.0 0.0 0.00 0.00 0.00 62 1015.8
20260510013443 15 0.0 0.0 0.00 0.00 0.00 62 1015.8
20260510012443 15 0.0 0.0 0.00 0.00 0.00 61 1015.8
20260510011443 15 0.0 0.0 0.00 0.00 0.00 61 1015.8
20260510010443 15 0.0 0.0 0.00 0.00 0.00 62 1016.0
20260510005443 15 0.0 0.0 0.00 0.00 0.00 61 1016.0
20260510004443 15 0.0 0.0 0.00 0.00 0.00 60 1016.2
20260510003443 15 0.0 0.0 0.00 0.00 0.00 61 1016.3
20260510002443 15 0.0 0.0 0.00 0.00 0.00 60 1016.2
20260510001443 15 0.0 0.0 0.00 0.00 0.00 58 1016.2
20260510000443 15 0.0 0.0 0.00 0.00 0.00 57 1016.2
20260509235443 15 0.0 0.0 0.00 0.00 0.00 59 1016.1